Weather History for Iron Mountain, MI

Change the Weather History Date:

Monday, April 7, 2014

  Actual Average Record
Temperature  
Mean Temperature 42 °F -  
Max Temperature 57 °F 49 °F 84 °F (1991)
Min Temperature 28 °F 24 °F 4 °F (1982)
Degree Days  
Heating Degree Days 24    
Moisture  
Dew Point 33 °F    
Average Humidity 74    
Maximum Humidity 93    
Minimum Humidity 49    
Precipitation  
Precipitation 0.00 in - - ()
Sea Level Pressure  
Sea Level Pressure 29.76 in    
Wind  
Wind Speed 2 mph (North)    
Max Wind Speed 8 mph    
Max Gust Speed -    
Visibility 7 miles    
Events Rain    
Averages and records for this station are not official NWS values.
T = Trace of Precipitation, MM = Missing Value Source: NWS Daily Summary

Daily Weather History Graph

Daily Weather History Graph

Search for Another Location

Airport:

Trip Planner

Search our weather history database for the weather conditions in past years. The results will help you decide how hot, cold, wet, or windy it might be!

Date:

Astronomy

Apr. 07, 2014 Rise Set
Actual Time 6:21 AM CDT 7:28 PM CDT
Civil Twilight 5:50 AM CDT 7:59 PM CDT
Nautical Twilight 5:14 AM CDT 8:36 PM CDT
Astronomical Twilight 4:35 AM CDT 9:14 PM CDT
Moon 12:08 PM CDT (4/7) 2:14 AM CDT (4/7)
Length of Visible Light 14h 08m
Length of Day
13h 07m
First Quarter, 53% of the Moon is Illuminated
Apr 7
First Quarter
Apr 15
Full
Apr 22
Last Quarter
Apr 29
New
May 6
First Quarter

Hourly Weather History & Observations

Time (CDT) Temp. Windchill Dew Point Humidity Pressure Visibility Wind Dir Wind Speed Gust Speed Precip Events Conditions
1:54 AM 35.1 °F 31.0 °F 30.9 °F 85% 29.86 in 6.0 mi SE 4.6 mph - N/A   Clear
2:54 AM 34.0 °F - 30.9 °F 89% 29.84 in 5.0 mi Calm Calm - N/A   Mostly Cloudy
3:54 AM 32.0 °F - 30.0 °F 92% 29.83 in 5.0 mi Calm Calm - N/A   Overcast
4:54 AM 32.0 °F - 28.0 °F 85% 29.82 in 5.0 mi Calm Calm - N/A   Clear
5:54 AM 30.0 °F - 27.0 °F 88% 29.82 in 4.0 mi Calm Calm - N/A   Clear
6:26 AM 28.4 °F - 26.6 °F 93% 29.79 in 2.0 mi Calm Calm - N/A   Clear
6:54 AM 28.9 °F - 27.0 °F 92% 29.83 in 2.5 mi Calm Calm - N/A   Clear
7:06 AM 28.4 °F - 26.6 °F 93% 29.80 in 3.0 mi Calm Calm - N/A   Partly Cloudy
7:54 AM 34.0 °F - 30.0 °F 85% 29.84 in 4.0 mi Calm Calm - N/A   Clear
8:54 AM 43.0 °F - 36.0 °F 76% 29.83 in 7.0 mi Calm Calm - N/A   Mostly Cloudy
9:54 AM 46.9 °F - 37.9 °F 71% 29.82 in 9.0 mi Calm Calm - N/A   Scattered Clouds
10:54 AM 48.9 °F - 36.0 °F 61% 29.79 in 9.0 mi Calm Calm - N/A   Clear
11:54 AM 52.0 °F - 36.0 °F 54% 29.78 in 9.0 mi Calm Calm - N/A   Mostly Cloudy
12:54 PM 54.0 °F - 35.1 °F 49% 29.75 in 8.0 mi Calm Calm - N/A   Mostly Cloudy
1:54 PM 55.0 °F - 36.0 °F 49% 29.72 in 8.0 mi Calm Calm - N/A   Mostly Cloudy
3:54 PM 54.0 °F - 42.1 °F 64% 29.69 in 10.0 mi South 5.8 mph - N/A   Mostly Cloudy
4:54 PM 53.1 °F - 42.1 °F 66% 29.68 in 9.0 mi SSW 4.6 mph - N/A   Overcast
5:54 PM 53.1 °F - 37.9 °F 57% 29.67 in 10.0 mi WSW 4.6 mph - N/A   Mostly Cloudy
6:54 PM 48.9 °F - 36.0 °F 61% 29.68 in 10.0 mi NNW 5.8 mph - N/A   Overcast
7:17 PM 46.4 °F 42.4 °F 33.8 °F 62% 29.66 in 10.0 mi North 8.1 mph - N/A   Overcast
7:54 PM 45.0 °F 40.6 °F 33.1 °F 63% 29.70 in 10.0 mi North 8.1 mph - 0.00 in Rain Light Rain
8:54 PM 43.0 °F 38.8 °F 34.0 °F 71% 29.72 in 9.0 mi North 6.9 mph - 0.00 in Rain Light Rain
9:54 PM 43.0 °F 39.5 °F 33.1 °F 68% 29.70 in 10.0 mi NNE 5.8 mph - 0.00 in Rain Light Rain
10:54 PM 39.0 °F 34.8 °F 33.1 °F 79% 29.69 in 10.0 mi North 5.8 mph - 0.00 in   Overcast
11:54 PM 37.9 °F 32.7 °F 34.0 °F 86% 29.69 in 10.0 mi NNW 6.9 mph - N/A   Overcast